www.pogodaiklimat.ru
ПОГОДА на Кюльмяпихлая
Время
(UTC), дата
19 18.11
20 18.11
21 18.11
22 18.11
23 18.11
00 19.11
01 19.11
02 19.11
03 19.11
04 19.11
05 19.11
06 19.11
07 19.11
08 19.11
09 19.11
10 19.11
11 19.11
12 19.11
13 19.11
14 19.11
15 19.11
16 19.11
17 19.11
18 19.11
19 19.11
20 19.11
21 19.11
22 19.11
23 19.11
00 20.11
01 20.11
02 20.11
03 20.11
04 20.11
05 20.11
06 20.11
07 20.11
08 20.11
09 20.11
10 20.11
11 20.11
12 20.11
13 20.11
14 20.11
15 20.11
16 20.11
17 20.11
18 20.11
19 20.11
20 20.11
21 20.11
22 20.11
23 20.11
00 21.11
01 21.11
02 21.11
03 21.11
04 21.11
05 21.11
06 21.11
07 21.11
08 21.11
09 21.11
10 21.11
11 21.11
12 21.11
13 21.11
14 21.11
15 21.11
16 21.11
17 21.11
18 21.11
19 21.11
20 21.11
21 21.11
22 21.11
23 21.11
00 22.11
01 22.11
02 22.11
03 22.11
04 22.11
05 22.11
06 22.11
07 22.11
08 22.11
09 22.11
10 22.11
11 22.11
12 22.11
13 22.11
14 22.11
15 22.11
16 22.11
17 22.11
18 22.11
19 22.11
20 22.11
21 22.11
22 22.11
23 22.11
00 23.11
01 23.11
02 23.11
03 23.11
04 23.11
05 23.11
06 23.11
07 23.11
08 23.11
09 23.11
10 23.11
11 23.11
12 23.11
13 23.11
14 23.11
15 23.11
16 23.11
17 23.11
18 23.11
19 23.11
20 23.11
21 23.11
22 23.11
23 23.11
00 24.11
01 24.11
02 24.11
03 24.11
04 24.11
05 24.11
06 24.11
07 24.11
08 24.11
09 24.11
10 24.11
11 24.11
12 24.11
13 24.11
14 24.11
15 24.11
16 24.11
17 24.11
18 24.11
19 24.11
20 24.11
21 24.11
22 24.11
23 24.11
00 25.11
01 25.11
02 25.11
03 25.11
04 25.11
05 25.11
06 25.11
07 25.11
08 25.11
09 25.11
10 25.11
11 25.11
12 25.11
13 25.11
14 25.11
15 25.11
16 25.11
17 25.11
18 25.11
19 25.11
Ветер
(напр.,м/с)
Видим. Явления Облачность Т
(С)
Тd
(С)
f
(%)
Тe
(С)
Тes
(С)
Комфортность P
(гПа)
Po
(гПа)
Тmin
(С)
Tmax
(С)
R
(мм)
R24
(мм)
S
(см)
Ю 17-19
{19}
30 км 10/10 300 м +10.3 +9.1 92 +5 +5 997.7 994.3
Ю 16-18
{20}
30 км слаб. дождь 9/9 600 м +10.1 +9.0 93 +4 +4 996.8 993.4
Ю 17-20
{20}
9000 м ливневой дождь 10/10 600 м +9.9 +8.8 93 +4 +4 995.8 992.4
Ю 14-16
{19}
7000 м дождь 10/10 600 м +9.4 +8.4 93 +4 +4 995.5 992.1
Ю 13-15
{17}
17 км слаб. дождь 10/10 600 м +9.1 +8.4 95 +3 +3 994.5 991.1
Ю 16-18
{18}
29 км ливневой дождь 10/10 600 м +9.6 +8.4 92 +4 +4 992.5 989.2
Ю 17-19
{20}
20 км слаб. ливневой дождь 10/10 300 м +9.4 +8.3 93 +3 +3 991.1 987.8
Ю 17-21
{21}
19 км в посл. час морось 10/10 600 м +9.5 +8.2 92 +3 +3 990.0 986.6
Ю 19-22
{22}
17 км {ливн. дождь} 10/10 300 м +9.4 +8.0 91 +3 +3 988.4 985.0
Ю 19-22
{23}
18 км 10/10 600 м +9.4 +7.7 89 +3 +3 987.1 983.8
Ю 19-22
{23}
11 км слаб. ливневой дождь 10/10 600 м +9.2 +7.7 90 +3 +3 985.5 982.1
Ю 19-22
{22}
15 км в посл. час дождь со снегом {ливн. дождь} 10/10 300 м +9.4 +8.0 91 +3 +3 984.0 980.7 +9.1 +10.5
Ю 19-22
{23}
16 км 10/10 1080 м +9.6 +8.1 90 +3 +3 982.2 978.9
ЮЗ 23-27
{27}
17 км слаб. ливневой дождь 9/9 300 м +9.9 +7.5 85 +3 +3 981.0 977.7
ЮЗ 22-27
{30}
18 км {ливн. дождь, дождь} 9/0 +9.4 +4.6 72 +3 +3 981.0 977.6
ЮЗ 23-27
{31}
17 км 1/1 +9.1 +4.6 73 +2 +2 980.0 976.7
ЮЗ 22-26
{31}
7000 м морось 6/6 1000 м +6.6 +3.8 82 -1 -1 981.4 978.1
З 15-18
{23}
20 км в посл. час снег {ливн. снег, дождь} 10/10 1080 м +5.2 +2.5 83 -2 -2 983.1 979.7
СЗ 12-13
{17}
18 км слаб. ливневой дождь 10/10 300 м +4.9 +2.0 81 -2 -2 984.2 980.8
СЗ 9-12
{14}
14 км слаб. дождь 10/10 300 м +4.7 +2.6 86 -2 -2 985.1 981.7
СЗ 12-14
{14}
15 км слаб. дождь 10/10 300 м +4.1 +2.2 87 -3 -3 986.3 982.8
СЗ 13-14
{15}
15 км морось 10/10 1320 м +4.3 +2.4 87 -3 -3 987.0 983.6
СЗ 14-17
{17}
9000 м дождь 10/10 300 м +3.5 +2.1 91 -5 -5 988.2 984.7
СЗ 16-19
{19}
7000 м дождь {ливн. дождь} 10/10 300 м +3.4 +1.8 89 -5 -5 989.5 986.1 +2.9 +10.0
СЗ 16-19
{19}
5000 м слаб. дождь 10/10 200 м +2.1 +1.0 92 -7 -7 991.1 987.6
СЗ 12-15
{18}
3700 м слаб. дождь со снегом 10/10 200 м +2.2 +1.6 96 -6 -6 991.9 988.4
СЗ 16-19
{19}
25 км в посл. час переохл. осадки (гололёд) 9/9 600 м +3.0 -2.1 69 -5 -5 993.0 989.5
СЗ 14-17
{18}
30 км 6/6 1000 м +2.4 -4.4 61 -6 -6 994.1 990.7
З 14-17
{17}
23 км осадки 6/5 1000 м +2.1 -2.7 71 -6 -6 994.8 991.4
З 13-18
{20}
4900 м слаб. ливневой снег 9/9 1500 м +1.8 -1.7 78 -6 -6 995.3 991.8
СЗ 13-18
{21}
700 м слаб. ливневой снег 9/9 200 м -0.1 -0.9 94 -9 -9 995.7 992.1
СЗ 13-17
{21}
24 км в посл. час снег 3/3 600 м +2.4 -1.7 74 -6 -6 996.0 992.5
СЗ 13-16
{21}
13 км ливневой дождь 10/9 1500 м +1.8 +0.5 91 -7 -7 996.9 993.4
СЗ 12-14
{20}
18 км слаб. ливневой дождь 9/8 900 м +2.7 +0.6 86 -5 -5 997.6 994.1
СЗ 16-19
{20}
20 км в посл. час дождь 6/3 600 м +4.0 -0.5 72 -4 -4 998.4 994.9
СЗ 17-19
{21}
23 км в посл. час дождь {ливн. дождь, туман} 9/3 300 м +3.9 +0.2 77 -4 -4 999.8 996.3 -0.2 +4.1
СЗ 18-21
{21}
16 км в посл. час дождь 9/4 600 м +4.2 +0.7 78 -4 -4 1001.1 997.7
СЗ 18-21
{22}
14 км в посл. час дождь 9/9 600 м +4.5 +0.8 77 -4 -4 1002.6 999.1
СЗ 17-19
{21}
18 км {ливн. дождь} 4/4 870 м +4.7 +1.0 77 -3 -3 1004.1 1000.6
СЗ 17-19
{20}
15 км 6/4 600 м +5.1 +1.2 76 -3 -3 1005.3 1001.8
СЗ 16-21
{22}
15 км слаб. ливневой дождь 8/8 1320 м +4.4 +0.7 77 -3 -3 1007.1 1003.6
С 13-16
{19}
16 км {ливн. дождь, дождь} 9/9 600 м +4.7 +1.9 82 -3 -3 1008.7 1005.2
СЗ 14-18
{22}
12 км слаб. ливневой дождь 9/9 600 м +4.6 +1.0 77 -3 -3 1010.2 1006.7
СЗ 14-16
{17}
19 км в посл. час морось 5/5 1380 м +5.4 +0.3 70 -2 -2 1011.7 1008.2
СЗ 14-17
{17}
17 км в посл. час снег {ливн. снег, туман} 9/9 600 м +5.4 +1.2 74 -2 -2 1013.6 1010.1
СЗ 14-15
{16}
18 км 6/6 600 м +5.0 +0.3 72 -2 -2 1014.9 1011.4
СЗ 13-14
{15}
23 км 9/9 600 м +4.8 -0.8 67 -2 -2 1016.0 1012.5
СЗ 12-13
{14}
22 км {ливн. дождь, туман} 3/3 600 м +4.8 -0.2 70 -2 -2 1016.7 1013.2 +3.1 +5.5
СЗ 12-14
{15}
20 км в посл. час дождь 5/5 1050 м +4.7 -0.7 68 -2 -2 1017.8 1014.3
СЗ 10-12
{13}
28 км 4/4 600 м +4.7 -1.7 63 -1 -1 1018.5 1014.9
СЗ 8-11
{12}
30 км {ливн. дождь, дождь} ясно +4.5 -1.7 64 -1 -1 1018.7 1015.2
СЗ 7-8
{9}
35 км ясно +4.6 -1.9 63 -1 -1 1019.9 1016.3
З 6-7
{9}
35 км 1/1 1000 м +4.4 -2.3 62 -1 -1 1020.0 1016.5
З 7-9
{9}
40 км {ливн. дождь, дождь} 5/5 1000 м +4.5 -0.8 68 -1 -1 1020.7 1017.1
З 8-10
{10}
29 км 5/5 1000 м +4.2 -1.2 68 -2 -2 1020.6 1017.1
ЮЗ 8-10
{11}
45 км 9/9 600 м +4.2 -1.2 68 -2 -2 1020.3 1016.7
ЮЗ 9-11
{12}
45 км 9/9 600 м +4.3 -0.9 69 -2 -2 1019.6 1016.0
ЮЗ 9-11
{12}
45 км 8/5 600 м +4.5 -0.5 70 -2 -2 1019.4 1015.8
ЮЗ 12-13
{13}
45 км 9/8 600 м +4.4 -0.3 71 -3 -3 1018.8 1015.3
ЮЗ 12-14
{14}
50 км 9/1 600 м +4.3 -0.7 70 -3 -3 1017.2 1013.6 +4.0 +4.9
Ю 13-15
{15}
45 км 10/10 +4.5 -1.8 64 -3 -3 1016.4 1012.9
Ю 17-19
{19}
45 км 9/9 +4.7 -0.4 69 -3 -3 1014.5 1011.0
Ю 16-19
{21}
40 км 9/4 600 м +5.3 +0.6 72 -2 -2 1013.4 1009.9
Ю 19-22
{22}
40 км 10/10 1020 м +5.9 +0.7 69 -2 -2 1011.2 1007.7
Ю 18-21
{24}
15 км слаб. морось 10/10 1410 м +5.4 +2.7 83 -3 -3 1009.7 1006.2
Ю 20-24
{24}
6000 м слаб. дождь 10/10 300 м +5.3 +3.8 90 -3 -3 1007.3 1003.8
Ю 18-23
{23}
6000 м слаб. дождь 10/10 300 м +5.5 +4.3 92 -3 -3 1005.0 1001.5
Ю 24-28
{28}
3500 м слаб. дождь 10/10 300 м +6.1 +4.6 90 -2 -2 1002.3 998.9
Ю 20-25
{26}
3900 м слаб. дождь 10/10 300 м +6.5 +5.5 93 -1 -1 1000.2 996.7
Ю 19-22
{25}
5000 м слаб. дождь 10/10 300 м +6.7 +5.6 93 -1 -1 998.5 995.1
ЮЗ 18-21
{21}
5000 м слаб. дождь 10/10 200 м +6.5 +5.6 94 -1 -1 996.8 993.4
ЮЗ 18-21
{22}
15 км слаб. дождь 10/10 200 м +7.1 +5.9 92 -0 -0 995.4 992.0 +4.3 +7.1
ЮЗ 17-20
{22}
17 км в посл. час морось 10/10 800 м +7.3 +6.0 91 0 0 995.2 991.8
ЮЗ 16-19
{20}
16 км 9/9 1080 м +7.3 +6.0 91 0 0 995.3 991.9
ЮЗ 15-18
{19}
21 км {ливн. дождь, морось} 9/0 +7.5 +5.9 90 +1 +1 995.0 991.6
З 15-18
{18}
20 км ясно +7.4 +5.2 86 +1 +1 995.1 991.7
ЮЗ 15-17
{17}
21 км ясно +7.2 +5.1 86 +1 +1 994.8 991.4
З 14-17
{17}
23 км {ливн. дождь, морось} 1/0 +7.3 +4.5 82 +1 +1 994.7 991.3
З 17-19
{19}
18 км 9/9 +7.0 +4.2 82 0 0 994.7 991.3
З 15-17
{19}
18 км 3/3 +6.6 +3.8 82 -0 -0 994.8 991.3
З 15-16
{17}
17 км 3/3 300 м +6.4 +3.7 83 -1 -1 994.8 991.4
ЮЗ 14-16
{17}
18 км 1/1 300 м +6.2 +3.6 83 -1 -1 994.5 991.0
ЮЗ 15-17
{18}
19 км 6/6 300 м +6.1 +3.4 83 -1 -1 994.1 990.7
ЮЗ 15-17
{18}
20 км 3/3 300 м +6.1 +2.9 80 -1 -1 994.2 990.7 +6.0 +7.6
ЮЗ 15-18
{18}
20 км 1/1 600 м +6.0 +3.0 81 -1 -1 993.7 990.3
ЮЗ 14-17
{19}
18 км 3/3 300 м +6.0 +3.1 82 -1 -1 993.8 990.4
ЮЗ 15-17
{19}
18 км 3/3 300 м +6.2 +3.1 81 -1 -1 993.5 990.1
ЮЗ 17-19
{19}
16 км 3/3 300 м +6.4 +3.3 81 -1 -1 992.9 989.5
ЮЗ 15-17
{19}
17 км 5/5 300 м +6.3 +3.3 81 -1 -1 992.4 989.0
ЮЗ 15-18
{18}
19 км 5/5 600 м +6.4 +3.3 81 -1 -1 992.3 988.8
ЮЗ 15-17
{18}
18 км 5/5 600 м +6.6 +3.2 79 -0 -0 991.6 988.2
ЮЗ 14-17
{18}
18 км 1/1 600 м +6.6 +3.0 78 0 0 991.6 988.2
З 16-19
{19}
19 км 1/1 600 м +6.7 +2.9 77 -0 -0 991.3 987.9
ЮЗ 15-17
{19}
20 км ясно +6.7 +3.0 77 0 0 991.7 988.3
З 15-17
{18}
24 км ясно +6.5 +2.9 78 -0 -0 991.3 987.9
З 15-17
{18}
20 км 1/1 2000 м +6.5 +3.0 78 -0 -0 991.7 988.3 +6.0 +6.7
З 15-16
{16}
19 км ясно +6.6 +3.6 81 -0 -0 991.7 988.3
ЮЗ 14-16
{17}
23 км 5/5 1500 м +6.6 +3.7 82 -0 -0 992.2 988.8
З 12-14
{16}
25 км ясно +6.7 +3.6 81 +1 +1 992.4 988.9
З 14-16
{16}
29 км ясно +7.0 +3.5 78 +1 +1 992.4 989.0
З 15-18
{18}
22 км 9/9 2000 м +7.0 +3.5 78 0 0 992.5 989.0
З 15-17
{18}
22 км 9/9 +7.0 +3.1 76 0 0 993.0 989.6
З 15-17
{17}
22 км 5/5 +7.1 +3.4 77 +1 +1 993.2 989.8
З 15-18
{19}
20 км 9/9 2000 м +7.2 +2.8 74 +1 +1 993.5 990.1
З 15-18
{18}
19 км 10/10 1500 м +7.1 +2.8 74 +1 +1 993.8 990.4
З 16-18
{19}
19 км 5/5 +6.9 +2.6 74 0 0 994.1 990.7
З 15-18
{19}
21 км 6/6 2000 м +6.8 +2.0 71 0 0 994.0 990.5
З 16-19
{19}
18 км ясно +6.6 +2.2 73 -0 -0 993.9 990.5 +6.5 +7.2
З 16-20
{20}
18 км 6/6 1000 м +6.2 +2.5 77 -1 -1 994.3 990.9
З 15-17
{19}
12 км слаб. морось 10/10 600 м +5.8 +3.1 83 -1 -1 994.9 991.5
З 15-18
{19}
15 км {ливн. дождь, морось} 10/10 1000 м +6.1 +2.8 79 -1 -1 995.2 991.8
З 15-17
{19}
16 км 10/10 1000 м +6.1 +2.9 80 -1 -1 995.7 992.3
З 14-15
{18}
20 км 10/10 1000 м +6.4 +2.6 77 -0 -0 996.0 992.6
З 14-15
{17}
21 км {ливн. дождь, морось} 10/10 1000 м +6.4 +2.9 78 -0 -0 996.6 993.2
З 12-13
{15}
20 км слаб. ливневой дождь 10/10 600 м +5.8 +3.8 87 -1 -1 997.3 993.9
СЗ 11-13
{14}
22 км в посл. час дождь 9/8 300 м +6.3 +4.2 86 0 0 998.2 994.7
СЗ 12-13
{13}
27 км {ливн. дождь, дождь} 9/6 300 м +6.4 +3.8 83 0 0 999.2 995.7
СЗ 13-16
{16}
17 км ливневой дождь 9/6 1000 м +6.4 +3.8 83 -0 -0 1000.1 996.6
СЗ 15-17
{17}
22 км 9/9 600 м +6.5 +3.1 79 -0 -0 1000.9 997.5
СЗ 14-16
{17}
22 км {ливн. дождь, дождь} 8/8 600 м +6.3 +3.2 81 -1 -1 1001.6 998.2 +5.3 +6.7
СЗ 16-17
{17}
21 км 8/8 600 м +6.0 +2.2 77 -1 -1 1002.5 999.0
СЗ 14-16
{18}
20 км 9/9 600 м +5.9 +2.0 76 -1 -1 1003.2 999.8
СЗ 14-16
{16}
23 км 9/9 600 м +5.7 +1.7 75 -1 -1 1003.9 1000.4
СЗ 13-15
{16}
20 км 9/9 600 м +5.7 +2.1 78 -1 -1 1004.6 1001.1
СЗ 12-14
{15}
23 км 9/9 600 м +5.7 +2.0 77 -1 -1 1005.3 1001.8
СЗ 14-15
{15}
22 км 9/9 600 м +5.5 +1.8 77 -2 -2 1005.7 1002.2
СЗ 13-14
{15}
22 км 9/9 600 м +5.4 +2.0 79 -2 -2 1006.1 1002.6
СЗ 13-15
{15}
24 км 9/9 600 м +5.4 +2.1 79 -2 -2 1006.4 1002.9
СЗ 13-14
{14}
27 км 9/9 600 м +5.2 +2.2 81 -2 -2 1006.8 1003.3
СЗ 12-13
{14}
26 км 9/9 600 м +5.2 +1.9 79 -2 -2 1007.2 1003.7
СЗ 11-12
{13}
28 км 8/8 300 м +5.1 +1.7 79 -2 -2 1007.5 1004.0
СЗ 9-10
{12}
30 км 5/5 300 м +4.9 +1.8 80 -1 -1 1007.8 1004.3 +4.8 +6.3
СЗ 7-8
{11}
29 км 1/1 300 м +4.9 +1.9 81 -1 -1 1008.0 1004.5
З 6-8
{8}
35 км 6/6 300 м +4.8 +1.8 81 -0 -0 1008.9 1005.4
З 6-6
{6}
30 км 5/5 300 м +4.8 +1.8 81 -0 -0 1009.2 1005.7
З 5-6
{7}
30 км 8/1 300 м +5.0 +1.7 79 0 +1 1009.1 1005.6
З 3-4
{7}
29 км 9/1 300 м +4.8 +1.7 80 +1 +1 1009.0 1005.5
ЮЗ 5-6
{6}
50 км 9/9 2000 м +5.0 +1.4 78 0 0 1008.9 1005.4
ЮЗ 4-5
{6}
45 км 10/10 2000 м +4.9 +1.6 79 +1 +1 1009.0 1005.5
Ю 4-4
{5}
50 км 9/5 1500 м +4.7 +2.1 83 +1 +1 1008.7 1005.2
Ю 5-5
{5}
50 км 10/10 2000 м +4.7 +2.0 83 0 0 1008.8 1005.3
ЮВ 5-6
{6}
45 км 10/10 2000 м +4.4 +2.1 85 -1 -1 1008.4 1004.9
Ю 5-6
{7}
50 км 10/6 600 м +4.3 +2.3 87 -1 -1 1008.8 1005.3
ЮВ 4-5
{7}
45 км слаб. морось {туман} 10/10 600 м +4.3 +2.1 86 -0 -0 1009.0 1005.5 +4.2 +5.2
В 5-6
{6}
30 км слаб. дождь 10/10 600 м +3.7 +2.0 89 -1 -1 1009.1 1005.6
ЮВ 6-7
{7}
45 км в посл. час дождь 10/10 300 м +3.8 +2.0 88 -2 -2 1009.3 1005.8
ЮВ 6-8
{8}
50 км {дождь, морось} 10/10 600 м +3.7 +2.0 89 -2 -2 1009.5 1006.0
ЮВ 5-7
{7}
50 км 10/10 600 м +3.6 +1.9 89 -2 -2 1010.0 1006.5
ЮВ 6-7
{8}
30 км слаб. ливневой дождь 10/10 300 м +3.5 +2.1 91 -2 -2 1010.2 1006.7
ЮВ 7-8
{8}
50 км {ливн. дождь, дождь} 10/10 1050 м +3.5 +2.2 91 -3 -3 1010.5 1006.9
ЮВ 7-7
{7}
50 км 10/10 960 м +3.6 +2.6 93 -3 -3 1010.8 1007.3
ЮВ 6-7
{7}
50 км 10/10 600 м +3.7 +2.7 93 -2 -2 1011.0 1007.5
ЮВ 7-8
{8}
50 км 10/10 800 м +3.4 +2.6 94 -3 -3 1010.8 1007.2
ЮВ 8-9
{9}
35 км 10/10 660 м +3.5 +2.8 95 -3 -3 1010.6 1007.0
ЮВ 8-9
{9}
24 км 10/10 700 м +3.6 +2.9 95 -3 -3 1010.3 1006.8
Ю 8-9
{9}
15 км 10/10 50 м +3.7 +3.2 97 -3 -3 1010.5 1007.0 +3.4 +4.4
ЮВ 7-9
{9}
5000 м дымка 10/10 50 м +4.1 +3.7 97 -2 -2 1010.3 1006.7
ЮВ 8-9
{9}
14 км 10/10 50 м +4.6 +4.2 97 -2 -2 1009.6 1006.1
Ю 8-9
{10}
12 км морось 10/10 1050 м +5.1 +4.8 98 -1 -1 1009.3 1005.8
Ю 8-10
{10}
15 км слаб. дождь 10/10 720 м +5.6 +5.2 97 -0 -0 1008.2 1004.7
Ю 10-12
{12}
3900 м слаб. дождь 10/10 100 м +6.3 +5.9 97 0 0 1007.5 1004.0
Ю 10-12
{13}
15 км слаб. дождь 10/10 100 м +7.4 +7.0 97 +2 +2 1006.8 1003.3
Ю 13-14
{14}
12 км слаб. ливневой дождь 10/10 660 м +7.8 +7.4 97 +2 +2 1006.5 1003.0
Ю 15-17
{17}
24 км в посл. час дождь 10/10 1000 м +7.9 +7.4 97 +1 +1 1005.9 1002.5
Ю 15-17
{17}
22 км {ливн. дождь, дождь} 10/10 1000 м +7.9 +7.3 96 +1 +1 1005.6 1002.2
Ю 15-16
{16}
21 км 10/10 1000 м +8.0 +7.0 93 +2 +2 1005.3 1001.8
ЮЗ 15-16
{17}
21 км 10/10 1000 м +8.2 +6.6 90 +2 +2 1005.1 1001.7
ЮЗ 14-16
{17}
23 км {ливн. дождь, дождь} 10/10 1000 м +8.1 +6.3 88 +2 +2 1004.9 1001.4 +3.7 +8.3
ЮЗ 15-18
{18}
23 км 10/10 600 м +8.0 +5.9 87 +2 +2 1004.5 1001.0
Местоположение метеостанции Кюльмяпихлая (Финляндия): широта 61.14 долгота 21.30 высота над уровнем моря 4 м.
В архиве по умолчанию представлена погода на Кюльмяпихлая за последнюю неделю. Архивные данные за месяц целиком и за предыдущие месяцы, начиная с января 2011 года, Вы можете получить, выбрав интересующий диапазон дат из раскрывающегося списка и нажав кнопку "Найти!".
*Определитесь, кто Вы:
Внимание! Время в таблицах - всемирное. Для получения местного времени необходимо прибавить поправку, которая равна 1 ч.
Смотрите также архив погоды в соседних городах и на ближайших метеорологических станциях:
Партнеры нашего сайта:      
Пояснения к столбцам:
  • Ветер - указаны скорость ветра в м/с - средняя за 10 мин, порывы в срок и между сроками (в фигурных скобках) и направление, откуда дует ветер: С - северный,
  • СВ - северо-восточный, В - восточный, ЮВ - юго-восточный, Ю - южный, ЮЗ - юго-западный, З - западный, СЗ - северо-западный.
  • Видимость - горизонтальная дальность видимости в метрах или километрах. При видимости от 1 до 10 км при отсутствии осадков обычно наблюдается дымка, при ухудшении видимости до 1 км и менее - туман. В сухую погоду видимость может ухудшаться дымом, пылью или мглою.
  • Явления - указаны атмосферные явления, наблюдавшиеся в срок или в последний час перед сроком; фигурными скобками обозначены явления, наблюдавшиеся между сроками (за 1-3 часа до срока); квадратными скобками обозначены град или гололедные отложения с указанием их диаметра в мм.
  • Облачность - указаны через наклонную черту общая и нижняя облачность в баллах и высота нижней границы облаков в метрах; квадратными скобками обозначены формы облаков: Ci - перистые, Cs - перисто-слоистые, Cc - перисто-кучевые, Ac - высококучевые, As - высокослоистые, Sc - слоисто-кучевые, Ns - слоисто-дождевые, Cu - кучевые, Cb - кучево-дождевые. Подробнее классификацию облаков см. в Атласе облаков (PDF).
  • T - Температура воздуха - температура, измеренная на высоте 2 м над землей.
  • Td - Температура точки росы - температура, при понижении до которой содержащийся в воздухе водяной пар достигнет насыщения.
  • f - Относительная влажность воздуха - влажноcть воздуха, измеренная на высоте 2 м над землей.
  • Te - Эффективная температура - температура, которую ощущает одетый по сезону человек в тени. Характеристика душности погоды. При расчете учитывается влияние влажности воздуха и скорости ветра на теплоощущения человека.
  • Tes - Эффективная температура на солнце - температура, которую ощущает человек, с поправкой на солнечный нагрев. Характеристика знойности погоды. Зависит от высоты солнца над горизонтом, облачности и скорости ветра. Ночью, в пасмурную погоду, а также при ветре 12 м/с и более поправка равна нулю.
  • P - Атмосферное давление - приведенное к уровню моря атмосферное давление.
  • Po - Атмосферное давление - измеренное на уровне метеостанции атмосферное давление.
  • Tmin - Минимальная температура - минимум температуры воздуха на высоте 2 м над землей.
  • Tmax - Максимальная температура - максимум температуры воздуха на высоте 2 м над землей.
  • R - Количество осадков - Количество выпавших осадков за период времени, мм. При наведении курсора мыши на число - период времени, за который выпало указанное количество осадков.
  • R24 - Количество осадков - Количество выпавших осадков за 24 часа, мм.
  • S - Снежный покров - Высота снежного покрова, см. При наведении курсора мыши на число - состояние снежного покрова и степень покрытия местности в баллах.